Estación de El Refugio

Ultimos registro cada 15 minutos 88
Estación Fecha / Hora Temperatura Humedad Lluvia Velocidad Dirección Radiación Presion
88 El Refugio 08-05-2026 22:30 10,7 77 0 0 240 0 1039,1
87 El Refugio 08-05-2026 22:15 9,8 78 0 0 255 0 1039,2
86 El Refugio 08-05-2026 22:00 9,6 77 0 0 255 0 1038,9
85 El Refugio 08-05-2026 21:45 9,6 77 0 0 255 0 1039,1
84 El Refugio 08-05-2026 21:30 9,9 75 0 0 255 0 1038,8
83 El Refugio 08-05-2026 21:15 10,3 73 0 0 255 0 1038,5
82 El Refugio 08-05-2026 21:00 10,7 72 0 0 255 0 1038,5
81 El Refugio 08-05-2026 20:30 10,9 71 0 0 255 0 1038,6
80 El Refugio 08-05-2026 20:15 10,5 72 0 0 255 0 1038,4
79 El Refugio 08-05-2026 20:00 10,9 72 0 0 255 0 1038,3
78 El Refugio 08-05-2026 19:45 11,3 69 0 0 255 0 1038
77 El Refugio 08-05-2026 19:30 11,9 68 0 0 255 0 1038,1
76 El Refugio 08-05-2026 19:15 12,3 65 0 0 255 0 1038,1
75 El Refugio 08-05-2026 19:00 12,7 64 0 0 255 0 1038,1
74 El Refugio 08-05-2026 18:30 13,9 61 0 0 255 0 1038,2
73 El Refugio 08-05-2026 18:15 15,1 58 0 0 255 0 1038,1
72 El Refugio 08-05-2026 18:00 16,4 55 0 0 255 0 1038,1
71 El Refugio 08-05-2026 17:45 17,6 49 0 0 255 7 1038,1
70 El Refugio 08-05-2026 17:30 18,8 48 0 0 255 28 1038,1
69 El Refugio 08-05-2026 17:15 19 44 0 0 255 72 1038
68 El Refugio 08-05-2026 17:00 19,2 43 0 0 255 120 1038,1
67 El Refugio 08-05-2026 16:45 19,2 42 0 0 255 169 1038
66 El Refugio 08-05-2026 16:30 19 44 0 0 255 111 1038,1
65 El Refugio 08-05-2026 16:15 19 43 0 0 255 56 1038,2
64 El Refugio 08-05-2026 16:00 19,7 42 0 0 333 58 1038,1
63 El Refugio 08-05-2026 15:45 20,1 41 0 0 246 329 1038
62 El Refugio 08-05-2026 15:30 19,6 43 0 0 246 385 1038,3
61 El Refugio 08-05-2026 15:15 19,6 43 0 0 246 417 1038,3
60 El Refugio 08-05-2026 15:00 19,7 45 0 0 232 450 1038,3
59 El Refugio 08-05-2026 14:45 19,3 45 0 0 238 480 1038,4
58 El Refugio 08-05-2026 14:30 19,1 45 0 0 243 508 1038,8
57 El Refugio 08-05-2026 14:15 18,9 44 0 0 222 533 1039
56 El Refugio 08-05-2026 14:00 19,1 50 0 0 240 554 1039,2
55 El Refugio 08-05-2026 13:45 18,9 44 0 0 228 573 1039,3
54 El Refugio 08-05-2026 13:30 18,4 47 0 0 221 582 1039,6
53 El Refugio 08-05-2026 13:15 18,1 47 0 0 220 594 1039,7
52 El Refugio 08-05-2026 13:00 18 49 0 0 220 605 1040
51 El Refugio 08-05-2026 12:45 17,3 48 0 0 220 608 1040,3
50 El Refugio 08-05-2026 12:15 16,8 55 0 0 221 601 1040,7
49 El Refugio 08-05-2026 12:00 16,3 53 0 0 244 592 1040,6
48 El Refugio 08-05-2026 11:45 15,7 57 0 0 230 582 1040,8
47 El Refugio 08-05-2026 11:30 15,4 60 0 0 336 570 1040,9
46 El Refugio 08-05-2026 11:15 14,4 62 0 0 336 554 1040,9
45 El Refugio 08-05-2026 11:00 14,5 67 0 0 336 531 1041,2
44 El Refugio 08-05-2026 10:45 13,9 67 0 0 17 506 1041,5
43 El Refugio 08-05-2026 10:30 13,4 71 0 0 62 482 1041,4
42 El Refugio 08-05-2026 10:15 13,3 70 0 0 62 448 1041,6
41 El Refugio 08-05-2026 10:00 12,3 75 0 0 62 415 1041,9
40 El Refugio 08-05-2026 09:45 11,3 78 0 0 60 380 1041,7
39 El Refugio 08-05-2026 09:30 10,9 79 0 0 60 341 1041,8
38 El Refugio 08-05-2026 09:15 9,9 82 0 0 60 302 1042
37 El Refugio 08-05-2026 09:00 9,6 85 0 0 60 260 1042,1
36 El Refugio 08-05-2026 08:45 8,6 87 0 0 60 98 1041,9
35 El Refugio 08-05-2026 08:30 7,4 90 0 0 60 162 1042
34 El Refugio 08-05-2026 08:15 6,1 90 0 0 185 107 1041,8
33 El Refugio 08-05-2026 08:00 6 87 0 0 185 14 1041,9
32 El Refugio 08-05-2026 07:45 6,7 85 0 0 185 9 1041,9
31 El Refugio 08-05-2026 07:30 7,5 85 0 0 185 5 1042,1
30 El Refugio 08-05-2026 07:15 8,2 86 0 0 185 0 1042
29 El Refugio 08-05-2026 07:00 8,3 86 0 0 185 0 1042
28 El Refugio 08-05-2026 06:45 7,8 88 0 0 185 0 1042,2
27 El Refugio 08-05-2026 06:30 7,7 86 0 0 120 0 1042,3
26 El Refugio 08-05-2026 06:15 8,2 85 0 0 120 0 1042,4
25 El Refugio 08-05-2026 06:00 8,4 85 0 0 120 0 1042,1
24 El Refugio 08-05-2026 05:45 8,3 86 0 0 185 0 1041,8
23 El Refugio 08-05-2026 05:30 8,3 86 0 0 180 0 1041,8
22 El Refugio 08-05-2026 05:15 8,3 85 0 0 176 0 1041,8
21 El Refugio 08-05-2026 05:00 8,2 85 0 0 225 0 1041,9
20 El Refugio 08-05-2026 04:45 8,7 84 0 0 225 0 1041,7
19 El Refugio 08-05-2026 04:30 8,7 85 0 0 225 0 1041,2
18 El Refugio 08-05-2026 04:15 8,7 85 0 0 221 0 1041,2
17 El Refugio 08-05-2026 04:00 8,6 85 0 0 221 0 1041,3
16 El Refugio 08-05-2026 03:45 8,4 86 0 0 221 0 1041,8
15 El Refugio 08-05-2026 03:30 8,2 85 0 0 221 0 1041,9
14 El Refugio 08-05-2026 03:15 8,5 84 0 0 221 0 1042,1
13 El Refugio 08-05-2026 03:00 8,9 83 0 0 221 0 1042,3
12 El Refugio 08-05-2026 02:45 9,2 83 0 0 221 0 1042,5
11 El Refugio 08-05-2026 02:30 9,4 81 0 0 221 0 1042,3
10 El Refugio 08-05-2026 02:15 9,6 81 0 0 221 0 1042,3
9 El Refugio 08-05-2026 02:00 9,8 80 0 0 221 0 1042,4
8 El Refugio 08-05-2026 01:45 10 79 0 0 96 0 1042,7
7 El Refugio 08-05-2026 01:30 10,4 78 0 0 167 0 1042,8
6 El Refugio 08-05-2026 01:15 10,6 79 0 0 165 0 1042,8
5 El Refugio 08-05-2026 01:00 10,8 77 0 0 154 0 1042,9
4 El Refugio 08-05-2026 00:45 10,9 77 0 0 154 0 1042,8
3 El Refugio 08-05-2026 00:30 11,1 76 0 0 154 0 1043,2
2 El Refugio 08-05-2026 00:15 11,2 76 0 0 154 0 1043,4
1 El Refugio 08-05-2026 00:00 11,4 76 0 0 154 0 1043,6